H1 CPF 2 NER 2022 3 26 9 085 01 glonass140 H2 1903001 9140 44299 2022 3 26 0 0 0 2022 3 29 23 45 0 900 1 1 0 0 0 1 H9 10 0 59664 0.00000 0 4835786.195 -12698968.787 -21572077.441 10 0 59664 900.00000 0 6180239.864 -10332414.517 -22470692.446 10 0 59664 1800.00000 0 7739729.605 -7999896.639 -22932147.294 10 0 59664 2700.00000 0 9482036.520 -5762931.546 -22947368.642 10 0 59664 3600.00000 0 11364488.345 -3676684.932 -22515975.722 10 0 59664 4500.00000 0 13335582.404 -1787862.367 -21646294.362 10 0 59664 5400.00000 0 15336997.529 -132966.447 -20355200.008 10 0 59664 6300.00000 0 17305911.354 1263006.916 -18667792.287 10 0 59664 7200.00000 0 19177526.085 2387378.859 -16616907.093 10 0 59664 8100.00000 0 20887696.834 3240071.378 -14242475.436 10 0 59664 9000.00000 0 22375551.890 3833353.666 -11590741.496 10 0 59664 9900.00000 0 23585994.350 4191062.860 -8713355.375 10 0 59664 10800.00000 0 24471979.417 4347333.603 -5666358.735 10 0 59664 11700.00000 0 24996471.097 4344891.733 -2509083.790 10 0 59664 12600.00000 0 25133995.596 4232985.978 697011.857 10 0 59664 13500.00000 0 24871725.969 4065047.003 3889550.776 10 0 59664 14400.00000 0 24210052.607 3896174.571 7006457.140 10 0 59664 15300.00000 0 23162616.084 3780560.671 9987169.222 10 0 59664 16200.00000 0 21755801.756 3768958.882 12773818.643 10 0 59664 17100.00000 0 20027718.252 3906307.843 15312353.132 10 0 59664 18000.00000 0 18026703.688 4229609.699 17553580.867 10 0 59664 18900.00000 0 15809422.958 4766153.198 19454116.644 10 0 59664 19800.00000 0 13438636.213 5532156.220 20977212.291 10 0 59664 20700.00000 0 10980731.930 6531884.534 22093456.325 10 0 59664 21600.00000 0 8503127.110 7757283.547 22781330.609 10 0 59664 22500.00000 0 6071642.060 9188138.315 23027614.582 10 0 59664 23400.00000 0 3747957.855 10792755.151 22827630.441 10 0 59664 24300.00000 0 1587260.538 12529136.669 22185325.595 10 0 59664 25200.00000 0 -363831.831 14346601.841 21113191.444 10 0 59664 26100.00000 0 -2068974.985 16187784.343 19632020.367 10 0 59664 27000.00000 0 -3503368.047 17990926.958 17770505.546 10 0 59664 27900.00000 0 -4654535.820 19692377.556 15564690.825 10 0 59664 28800.00000 0 -5522592.511 21229183.667 13057280.579 10 0 59664 29700.00000 0 -6119977.070 22541678.394 10296821.952 10 0 59664 30600.00000 0 -6470672.035 23575950.419 7336774.230 10 0 59664 31500.00000 0 -6608939.057 24286095.268 4234482.455 10 0 59664 32400.00000 0 -6577624.535 24636153.672 1050074.260 10 0 59664 33300.00000 0 -6426106.705 24601655.555 -2154699.419 10 0 59664 34200.00000 0 -6207970.712 24170704.202 -5317657.605 10 0 59664 35100.00000 0 -5978509.808 23344554.217 -8377393.637 10 0 59664 36000.00000 0 -5792158.385 22137657.798 -11274467.263 10 0 59664 36900.00000 0 -5699965.638 20577176.099 -13952561.057 10 0 59664 37800.00000 0 -5747217.236 18701974.797 -16359578.455 10 0 59664 38700.00000 0 -5971306.346 16561144.639 -18448661.733 10 0 59664 39600.00000 0 -6399945.038 14212107.782 -20179109.640 10 0 59664 40500.00000 0 -7049792.903 11718388.125 -21517176.491 10 0 59664 41400.00000 0 -7925562.259 9147138.014 -22436736.742 10 0 59664 42300.00000 0 -9019639.235 6566524.116 -22919801.650 10 0 59664 43200.00000 0 -10312238.344 4043081.101 -22956877.550 10 0 59664 44100.00000 0 -11772085.616 1639143.327 -22547158.267 10 0 59664 45000.00000 0 -13357602.929 -589538.483 -21698547.427 10 0 59664 45900.00000 0 -15018544.883 -2595896.268 -20427509.730 10 0 59664 46800.00000 0 -16698020.300 -4343271.977 -18758753.579 10 0 59664 47700.00000 0 -18334813.764 -5806701.348 -16724750.872 10 0 59664 48600.00000 0 -19865909.724 -6973701.030 -14365103.070 10 0 59664 49500.00000 0 -21229112.791 -7844526.919 -11725765.806 10 0 59664 50400.00000 0 -22365653.411 -8431893.981 -8858147.395 10 0 59664 51300.00000 0 -23222668.598 -8760170.828 -5818099.304 10 0 59664 52200.00000 0 -23755452.553 -8864084.663 -2664818.916 10 0 59664 53100.00000 0 -23929381.718 -8786993.069 540312.969 10 0 59664 54000.00000 0 -23721432.761 -8578797.591 3734936.241 10 0 59664 54900.00000 0 -23121229.392 -8293589.164 6856932.667 10 0 59664 55800.00000 0 -22131574.060 -7987126.657 9845639.350 10 0 59664 56700.00000 0 -20768442.605 -7714256.586 12643030.138 10 0 59664 57600.00000 0 -19060442.660 -7526384.105 15194841.643 10 0 59664 58500.00000 0 -17047759.257 -7469102.749 17451621.903 10 0 59664 59400.00000 0 -14780632.470 -7580083.160 19369681.774 10 0 59664 60300.00000 0 -12317431.173 -7887309.678 20911931.420 10 0 59664 61200.00000 0 -9722403.595 -8407738.622 22048586.700 10 0 59664 62100.00000 0 -7063198.140 -9146434.167 22757733.103 10 0 59664 63000.00000 0 -4408256.992 -10096217.607 23025737.660 10 0 59664 63900.00000 0 -1824189.834 -11237844.383 22847502.057 10 0 59664 64800.00000 0 626764.751 -12540701.383 22226553.120 10 0 59664 65700.00000 0 2889086.517 -13963995.613 21174969.598 10 0 59664 66600.00000 0 4916033.808 -15458385.058 19713146.979 10 0 59664 67500.00000 0 6671333.166 -16967984.437 17869404.816 10 0 59664 68400.00000 0 8130429.838 -18432663.033 15679443.682 10 0 59664 69300.00000 0 9281248.640 -19790539.602 13185661.545 10 0 59664 70200.00000 0 10124434.772 -20980571.035 10436341.867 10 0 59664 71100.00000 0 10673065.501 -21945127.281 7484728.050 10 0 59664 72000.00000 0 10951845.397 -22632445.189 4388001.255 10 0 59664 72900.00000 0 10995819.288 -22998858.607 1206180.472 10 0 59664 73800.00000 0 10848657.201 -23010710.964 -1999034.565 10 0 59664 74700.00000 0 10560583.463 -22645869.417 -5165455.525 10 0 59664 75600.00000 0 10186037.318 -21894776.036 -8231609.878 10 0 59664 76500.00000 0 9781163.776 -20760990.560 -11137934.150 10 0 59664 77400.00000 0 9401240.831 -19261200.505 -13827932.642 10 0 59664 78300.00000 0 9098152.075 -17424696.573 -16249278.847 10 0 59664 79200.00000 0 8918012.027 -15292333.746 -18354837.819 10 0 59664 80100.00000 0 8899045.242 -12915020.105 -20103589.127 10 0 59664 81000.00000 0 9069809.730 -10351795.224 -21461432.090 10 0 59664 81900.00000 0 9447840.791 -7667577.276 -22401857.221 10 0 59664 82800.00000 0 10038773.723 -4930672.068 -22906470.318 10 0 59664 83700.00000 0 10835983.703 -2210147.229 -22965358.608 10 0 59664 84600.00000 0 11820759.323 426819.457 -22577291.335 10 0 59664 85500.00000 0 12963003.649 2917507.268 -21749750.358 10 0 59665 0.00000 0 14222434.202 5206028.311 -20498789.813 10 0 59665 900.00000 0 15550232.781 7245414.154 -18848726.325 10 0 59665 1800.00000 0 16891074.392 8999323.377 -16831667.181 10 0 59665 2700.00000 0 18185452.187 10443303.234 -14486883.182 10 0 59665 3600.00000 0 19372198.572 11565550.154 -11860039.886 10 0 59665 4500.00000 0 20391096.351 12367139.392 -9002301.878 10 0 59665 5400.00000 0 21185468.978 12861715.237 -5969328.076 10 0 59665 6300.00000 0 21704639.859 13074656.389 -2820178.327 10 0 59665 7200.00000 0 21906156.106 13041753.410 383846.372 10 0 59665 8100.00000 0 21757682.305 12807455.980 3580406.417 10 0 59665 9000.00000 0 21238483.907 12422765.906 6707344.442 10 0 59665 9900.00000 0 20340437.570 11942866.693 9703899.631 10 0 59665 10800.00000 0 19068525.939 11424591.436 12511891.203 10 0 59665 11700.00000 0 17440796.336 10923837.215 15076847.625 10 0 59665 12600.00000 0 15487785.538 10493035.954 17349059.535 10 0 59665 13500.00000 0 13251435.200 10178788.784 19284536.354 10 0 59665 14400.00000 0 10783543.618 10019763.519 20845848.783 10 0 59665 15300.00000 0 8143818.650 10044943.299 22002841.915 10 0 59665 16200.00000 0 5397612.765 10272299.348 22733206.413 10 0 59665 17100.00000 0 2613433.836 10707942.843 23022898.058 10 0 59665 18000.00000 0 -139665.758 11345790.716 22866398.749 10 0 59665 18900.00000 0 -2794714.680 12167758.903 22266814.987 10 0 59665 19800.00000 0 -5289355.575 13144474.723 21235812.631 10 0 59665 20700.00000 0 -7568182.000 14236478.634 19793389.532 10 0 59665 21600.00000 0 -9584784.267 15395865.524 17967490.394 10 0 59665 22500.00000 0 -11303421.037 16568297.544 15793470.861 10 0 59665 23400.00000 0 -12700248.671 17695305.031 13313420.486 10 0 59665 24300.00000 0 -13764058.564 18716780.080 10575356.749 10 0 59665 25200.00000 0 -14496492.712 19573559.024 7632304.671 10 0 59665 26100.00000 0 -14911729.245 20209986.089 4541278.893 10 0 59665 27000.00000 0 -15035651.517 20576350.873 1362187.035 10 0 59665 27900.00000 0 -14904535.896 20631097.157 -1843325.142 10 0 59665 28800.00000 0 -14563313.377 20342709.673 -5013064.754 10 0 59665 29700.00000 0 -14063478.213 19691198.631 -8085496.181 10 0 59665 30600.00000 0 -13460731.656 18669118.281 -11000935.445 10 0 59665 31500.00000 0 -12812460.196 17282075.208 -13702711.176 10 0 59665 32400.00000 0 -12175154.894 15548703.241 -16138269.349 10 0 59665 33300.00000 0 -11601881.021 13500104.210 -18260200.005 10 0 59665 34200.00000 0 -11139905.290 11178776.216 -20027165.489 10 0 59665 35100.00000 0 -10828581.458 8637072.561 -21404711.816 10 0 59665 36000.00000 0 -10697584.285 5935254.275 -22365946.950 10 0 59665 36900.00000 0 -10765567.226 3139216.334 -22892072.313 10 0 59665 37800.00000 0 -11039301.413 317981.457 -22972756.790 10 0 59665 38700.00000 0 -11513333.190 -2458934.799 -22606345.446 10 0 59665 39600.00000 0 -12170175.526 -5124178.213 -21799898.397 10 0 59665 40500.00000 0 -12981026.035 -7615119.086 -20569058.578 10 0 59665 41400.00000 0 -13906981.902 -9876217.784 -18937750.492 10 0 59665 42300.00000 0 -14900700.836 -11861094.041 -16937715.455 10 0 59665 43200.00000 0 -15908438.028 -13534213.904 -14607892.074 10 0 59665 44100.00000 0 -16872372.916 -14872124.231 -11993654.007 10 0 59665 45000.00000 0 -17733126.970 -15864183.622 -9145920.042 10 0 59665 45900.00000 0 -18432365.428 -16512760.201 -6120154.287 10 0 59665 46800.00000 0 -18915372.142 -16832889.183 -2975276.646 10 0 59665 47700.00000 0 -19133487.808 -16851406.235 227494.212 10 0 59665 48600.00000 0 -19046307.699 -16605594.916 3425841.825 10 0 59665 49500.00000 0 -18623545.371 -16141407.175 6557572.411 10 0 59665 50400.00000 0 -17846483.186 -15511333.824 9561830.028 10 0 59665 51300.00000 0 -16708948.312 -14772016.579 12380282.055 10 0 59665 52200.00000 0 -15217773.031 -13981703.848 14958251.560 10 0 59665 53100.00000 0 -13392720.271 -13197658.549 17245774.384 10 0 59665 54000.00000 0 -11265877.656 -12473627.735 19198560.874 10 0 59665 54900.00000 0 -8880545.674 -11857480.610 20778844.339 10 0 59665 55800.00000 0 -6289666.517 -11389113.871 21956100.803 10 0 59665 56700.00000 0 -3553858.867 -11098711.622 22707627.397 10 0 59665 57600.00000 0 -739139.914 -11005431.945 23018969.539 10 0 59665 58500.00000 0 2085571.537 -11116574.151 22884189.834 10 0 59665 59400.00000 0 4851068.454 -11427260.685 22305974.587 10 0 59665 60300.00000 0 7490478.584 -11920646.268 21295576.565 10 0 59665 61200.00000 0 9941789.887 -12568645.131 19872595.487 10 0 59665 62100.00000 0 12150175.452 -13333145.787 18064600.441 10 0 59665 63000.00000 0 14070023.148 -14167662.755 15906601.089 10 0 59665 63900.00000 0 15666587.161 -15019356.502 13440377.229 10 0 59665 64800.00000 0 16917194.106 -15831337.596 10713678.724 10 0 59665 65700.00000 0 17811954.496 -16545159.044 7779310.262 10 0 59665 66600.00000 0 18353950.565 -17103392.717 4694117.719 10 0 59665 67500.00000 0 18558893.086 -17452181.931 1517894.842 10 0 59665 68400.00000 0 18454261.761 -17543662.814 -1687769.280 10 0 59665 69300.00000 0 18077965.251 -17338152.227 -4860680.032 10 0 59665 70200.00000 0 17476577.113 -16806009.339 -7939241.549 10 0 59665 71100.00000 0 16703221.695 -15929091.349 -10863652.171 10 0 59665 72000.00000 0 15815198.954 -14701740.591 -13577067.585 10 0 59665 72900.00000 0 14871448.264 -13131259.751 -16026708.848 10 0 59665 73800.00000 0 13929958.195 -11237853.245 -18164893.420 10 0 59665 74700.00000 0 13045231.729 -9054035.290 -19949968.642 10 0 59665 75600.00000 0 12265914.125 -6623527.469 -21347129.197 10 0 59665 76500.00000 0 11632683.880 -3999690.106 -22329102.174 10 0 59665 77400.00000 0 11176496.269 -1243551.472 -22876685.972 10 0 59665 78300.00000 0 10917254.072 1578484.237 -22979132.128 10 0 59665 79200.00000 0 10862962.138 4397155.585 -22634362.166 10 0 59665 80100.00000 0 11009401.985 7142984.872 -21849014.724 10 0 59665 81000.00000 0 11340340.644 9748931.813 -20638321.578 10 0 59665 81900.00000 0 11828265.265 12152949.548 -19025814.458 10 0 59665 82800.00000 0 12435612.619 14300336.403 -17042868.004 10 0 59665 83700.00000 0 13116441.498 16145785.380 -14728087.491 10 0 59665 84600.00000 0 13818476.997 17655045.896 -12126553.146 10 0 59665 85500.00000 0 14485439.668 18806128.544 -9288936.049 10 0 59666 0.00000 0 15059560.162 19590003.031 -6270503.502 10 0 59666 900.00000 0 15484172.299 20010761.306 -3130032.302 10 0 59666 1800.00000 0 15706273.061 20085239.301 71343.846 10 0 59666 2700.00000 0 15678941.197 19842116.212 3271334.718 10 0 59666 3600.00000 0 15363510.487 19320529.858 6407713.311 10 0 59666 4500.00000 0 14731405.424 18568268.765 9419531.742 10 0 59666 5400.00000 0 13765561.318 17639618.852 12248308.662 10 0 59666 6300.00000 0 12461368.675 16592956.968 14839164.677 10 0 59666 7200.00000 0 10827102.094 15488193.827 17141883.564 10 0 59666 8100.00000 0 8883815.724 14384174.682 19111879.077 10 0 59666 9000.00000 0 6664709.690 13336147.254 20711049.317 10 0 59666 9900.00000 0 4213994.071 12393403.002 21908503.096 10 0 59666 10800.00000 0 1585297.571 11597190.017 22681145.498 10 0 59666 11700.00000 0 -1160313.305 10978983.939 23014112.648 10 0 59666 12600.00000 0 -3956622.917 10559188.141 22901048.465 10 0 59666 13500.00000 0 -6734769.071 10346316.285 22344219.171 10 0 59666 14400.00000 0 -9425857.084 10336690.311 21354464.030 10 0 59666 15300.00000 0 -11963578.380 10514665.596 19950983.685 10 0 59666 16200.00000 0 -14286726.721 10853373.271 18160970.154 10 0 59666 17100.00000 0 -16341509.321 11315948.329 16019085.222 10 0 59666 18000.00000 0 -18083558.270 11857192.184 13566796.652 10 0 59666 18900.00000 0 -19479559.992 12425600.237 10851584.138 10 0 59666 19800.00000 0 -20508435.878 12965669.797 7926029.306 10 0 59666 20700.00000 0 -21162025.485 13420391.836 4846806.452 10 0 59666 21600.00000 0 -21445244.231 13733822.090 1673592.627 10 0 59666 22500.00000 0 -21375709.046 13853623.385 -1532082.552 10 0 59666 23400.00000 0 -20982847.641 13733471.858 -4708025.467 10 0 59666 24300.00000 0 -20306528.532 13335225.086 -7792582.678 10 0 59666 25200.00000 0 -19395269.165 12630759.733 -10725837.402 10 0 59666 26100.00000 0 -18304097.188 11603399.963 -13450774.816 10 0 59666 27000.00000 0 -17092154.719 10248874.749 -15914393.309 10 0 59666 27900.00000 0 -15820146.322 8575761.889 -18068739.772 10 0 59666 28800.00000 0 -14547738.139 6605398.019 -19871848.282 10 0 59666 29700.00000 0 -13331017.817 4371256.274 -21288563.602 10 0 59666 30600.00000 0 -12220122.325 1917815.601 -22291233.023 10 0 59666 31500.00000 0 -11257133.838 -701032.745 -22860252.637 10 0 59666 32400.00000 0 -10474332.555 -3423976.598 -22984456.995 10 0 59666 33300.00000 0 -9892880.311 -6184590.322 -22661344.074 10 0 59666 34200.00000 0 -9521990.722 -8913862.929 -21897130.684 10 0 59666 35100.00000 0 -9358620.968 -11542842.108 -20706636.737 10 0 59666 36000.00000 0 -9387698.304 -14005284.220 -19113000.156 10 0 59666 36900.00000 0 -9582871.592 -16240199.774 -17147227.575 10 0 59666 37800.00000 0 -9907755.857 -18194188.104 -14847589.330 10 0 59666 38700.00000 0 -10317616.705 -19823463.699 -12258870.422 10 0 59666 39600.00000 0 -10761422.659 -21095489.405 -9431492.260 10 0 59666 40500.00000 0 -11184177.598 -21990148.407 -6420522.705 10 0 59666 41400.00000 0 -11529433.457 -22500406.431 -3284594.371 10 0 59666 42300.00000 0 -11741875.614 -22632437.181 -84753.233 10 0 59666 43200.00000 0 -11769870.300 -22405207.033 3116739.031 10 0 59666 44100.00000 0 -11567865.114 -21849537.914 6257624.583 10 0 59666 45000.00000 0 -11098540.204 -21006689.474 9276866.054 10 0 59666 45900.00000 0 -10334618.514 -19926521.918 12115835.866 10 0 59666 46800.00000 0 -9260258.251 -18665318.380 14719454.651 10 0 59666 47700.00000 0 -7871968.691 -17283359.732 17037256.526 10 0 59666 48600.00000 0 -6179010.749 -15842354.670 19024360.890 10 0 59666 49500.00000 0 -4203265.438 -14402833.353 20642332.634 10 0 59666 50400.00000 0 -1978575.754 -13021613.862 21859915.035 10 0 59666 51300.00000 0 450410.749 -11749446.989 22653622.456 10 0 59666 52200.00000 0 3029850.868 -10628936.921 23008182.665 10 0 59666 53100.00000 0 5698699.785 -9692823.473 22916821.447 10 0 59666 54000.00000 0 8391008.368 -8962696.186 22381385.120 10 0 59666 54900.00000 0 11038429.610 -8448192.544 21412299.284 10 0 59666 55800.00000 0 13572831.552 -8146712.516 20028365.032 10 0 59666 56700.00000 0 15928909.866 -8043660.271 18256396.546 10 0 59666 57600.00000 0 18046693.214 -8113202.226 16130706.675 10 0 59666 58500.00000 0 19873838.674 -8319509.271 13692449.809 10 0 59666 59400.00000 0 21367623.063 -8618431.027 10988833.829 10 0 59666 60300.00000 0 22496548.205 -8959531.990 8072215.357 10 0 59666 61200.00000 0 23241493.785 -9288404.249 4999094.856 10 0 59666 62100.00000 0 23596370.009 -9549159.743 1829030.162 10 0 59666 63000.00000 0 23568242.785 -9686997.212 -1376511.313 10 0 59666 63900.00000 0 23176925.982 -9650735.541 -4555339.815 10 0 59666 64800.00000 0 22454057.503 -9395206.226 -7645747.220 10 0 59666 65700.00000 0 21441697.496 -8883403.271 -10587704.460 10 0 59666 66600.00000 0 20190507.125 -8088298.672 -13324028.896 10 0 59666 67500.00000 0 18757584.020 -6994245.454 -15801498.766 10 0 59666 68400.00000 0 17204045.050 -5597907.326 -17971892.685 10 0 59666 69300.00000 0 15592457.815 -3908673.852 -19792933.527 10 0 59666 70200.00000 0 13984228.725 -1948541.537 -21229117.942 10 0 59666 71100.00000 0 12437057.400 248536.372 -22252414.970 10 0 59666 72000.00000 0 11002564.463 2637806.061 -22842819.661 10 0 59666 72900.00000 0 9724192.508 5165328.827 -22988750.538 10 0 59666 73800.00000 0 8635468.516 7769990.244 -22687282.665 10 0 59666 74700.00000 0 7758700.884 10385820.033 -21944211.320 10 0 59666 75600.00000 0 7104165.791 12944526.659 -20773944.501 10 0 59666 76500.00000 0 6669816.961 15378141.327 -19199225.910 10 0 59666 77400.00000 0 6441530.774 17621661.091 -17250693.400 10 0 59666 78300.00000 0 6393875.807 19615580.641 -14966281.226 10 0 59666 79200.00000 0 6491373.598 21308206.747 -12390477.626 10 0 59666 80100.00000 0 6690196.412 22657658.277 -9573452.417 10 0 59666 81000.00000 0 6940229.067 23633467.982 -6570072.002 10 0 59666 81900.00000 0 7187406.239 24217719.058 -3438821.633 10 0 59666 82800.00000 0 7376224.950 24405669.227 -240656.893 10 0 59666 83700.00000 0 7452324.420 24205836.939 2962192.218 10 0 59666 84600.00000 0 7365022.772 23639547.240 6107440.277 10 0 59666 85500.00000 0 7069702.129 22739957.730 9133963.693 10 0 59667 0.00000 0 6529940.398 21550607.242 11982991.588 10 0 59667 900.00000 0 5719298.740 20123549.028 14599248.167 10 0 59667 1800.00000 0 4622689.776 18517149.857 16932020.432 10 0 59667 2700.00000 0 3237267.753 16793646.299 18936135.977 10 0 59667 3600.00000 0 1572803.891 15016562.730 20572828.712 10 0 59667 4500.00000 0 -348469.118 13248098.725 21810478.268 10 0 59667 5400.00000 0 -2492537.031 11546594.754 22625209.767 10 0 59667 6300.00000 0 -4814780.382 9964181.158 23001343.662 10 0 59667 7200.00000 0 -7261598.655 8544707.315 22931688.164 10 0 59667 8100.00000 0 -9772415.597 7322035.798 22417669.712 10 0 59667 9000.00000 0 -12281983.403 6318771.052 21469299.715 10 0 59667 9900.00000 0 -14722891.310 5545474.014 20104978.625 10 0 59667 10800.00000 0 -17028175.864 5000394.018 18351141.151 10 0 59667 11700.00000 0 -19133925.927 4669727.982 16241749.079 10 0 59667 12600.00000 0 -20981775.435 4528395.259 13817640.875 10 0 59667 13500.00000 0 -22521181.437 4541295.153 11125749.743 10 0 59667 14400.00000 0 -23711393.451 4664994.172 8218204.214 10 0 59667 15300.00000 0 -24523032.531 4849772.160 5151327.754 10 0 59667 16200.00000 0 -24939214.401 5041941.343 1984555.798 10 0 59667 17100.00000 0 -24956169.584 5186340.714 -1220709.550 10 0 59667 18000.00000 0 -24583334.214 5228900.572 -4402285.387 10 0 59667 18900.00000 0 -23842907.183 5119168.723 -7498411.759 10 0 59667 19800.00000 0 -22768891.525 4812691.142 -10448949.993 10 0 59667 20700.00000 0 -21405659.579 4273145.712 -13196552.127 10 0 59667 21600.00000 0 -19806101.480 3474137.716 -15687778.492 10 0 59667 22500.00000 0 -18029434.141 2400579.763 -17874141.388 10 0 59667 23400.00000 0 -16138762.228 1049596.206 -19713054.077 10 0 59667 24300.00000 0 -14198493.168 -569088.073 -21168666.288 10 0 59667 25200.00000 0 -12271714.381 -2433292.964 -22212569.539 10 0 59667 26100.00000 0 -10417642.697 -4509058.473 -22824358.103 10 0 59667 27000.00000 0 -8689252.797 -6751823.756 -22992034.275 10 0 59667 27900.00000 0 -7131184.114 -9108062.229 -22712249.588 10 0 59667 28800.00000 0 -5778013.934 -11517305.654 -21990376.764 10 0 59667 29700.00000 0 -4652969.007 -13914473.648 -20840410.531 10 0 59667 30600.00000 0 -3767129.441 -16232411.893 -19284698.725 10 0 59667 31500.00000 0 -3119157.976 -18404533.112 -17353508.544 10 0 59667 32400.00000 0 -2695565.260 -20367450.405 -15084436.112 10 0 59667 33300.00000 0 -2471499.120 -22063492.476 -12521670.743 10 0 59667 34200.00000 0 -2412023.383 -23442995.008 -9715128.443 10 0 59667 35100.00000 0 -2473830.927 -24466271.862 -6719471.920 10 0 59667 36000.00000 0 -2607317.026 -25105183.180 -3593036.841 10 0 59667 36900.00000 0 -2758923.718 -25344234.635 -396686.198 10 0 59667 37800.00000 0 -2873654.353 -25181162.010 2807383.851 10 0 59667 38700.00000 0 -2897650.358 -24626977.280 5956862.441 10 0 59667 39600.00000 0 -2780719.832 -23705475.236 8990541.892 10 0 59667 40500.00000 0 -2478709.929 -22452222.652 11849510.629 10 0 59667 41400.00000 0 -1955621.944 -20913073.725 14478297.446 10 0 59667 42300.00000 0 -1185379.386 -19142275.385 16825944.711 10 0 59667 43200.00000 0 -153174.232 -17200242.926 18846989.984 10 0 59667 44100.00000 0 1143665.321 -15151099.770 20502337.741 10 0 59667 45000.00000 0 2695322.015 -13060084.531 21760005.220 10 0 59667 45900.00000 0 4479666.413 -10990933.380 22595729.224 10 0 59667 46800.00000 0 6462956.299 -9003346.154 22993423.457 10 0 59667 47700.00000 0 8601029.723 -7150640.651 22945478.762 10 0 59667 48600.00000 0 10840942.639 -5477691.290 22452901.575 10 0 59667 49500.00000 0 13122983.873 -4019236.189 21525288.676 10 0 59667 50400.00000 0 15382984.685 -2798621.463 20180639.165 10 0 59667 51300.00000 0 17554828.198 -1827033.337 18445007.318 10 0 59667 52200.00000 0 19573055.711 -1103248.574 16352002.669 10 0 59667 53100.00000 0 21375462.685 -613912.534 13942146.350 10 0 59667 54000.00000 0 22905577.488 -334332.287 11262095.248 10 0 59667 54900.00000 0 24114920.477 -229751.054 8363747.947 10 0 59667 55800.00000 0 24964949.636 -257050.229 5303248.810 10 0 59667 56700.00000 0 25428611.752 -366807.371 2139908.562 10 0 59667 57600.00000 0 25491434.067 -505623.501 -1064938.499 10 0 59667 58500.00000 0 25152110.222 -618621.642 -4249118.930 10 0 59667 59400.00000 0 24422555.257 -652010.998 -7350823.581 10 0 59667 60300.00000 0 23327426.474 -555608.131 -10309806.755 10 0 59667 61200.00000 0 21903129.288 -285208.013 -13068557.616 10 0 59667 62100.00000 0 20196348.868 195296.140 -15573420.848 10 0 59667 63000.00000 0 18262168.202 912135.058 -17775644.474 10 0 59667 63900.00000 0 16161850.827 1880304.173 -19632333.969 10 0 59667 64800.00000 0 13960380.493 3102682.015 -21107293.737 10 0 59667 65700.00000 0 11723860.362 4569665.350 -22171739.169 10 0 59667 66600.00000 0 9516880.392 6259338.328 -22804864.934 10 0 59667 67500.00000 0 7399962.859 8138170.515 -22994258.047 10 0 59667 68400.00000 0 5427192.745 10162216.289 -22736147.179 10 0 59667 69300.00000 0 3644132.118 12278766.795 -22035482.879 10 0 59667 70200.00000 0 2086105.564 14428386.450 -20905846.640 10 0 59667 71100.00000 0 776928.201 16547249.516 -19369190.121 10 0 59667 72000.00000 0 -271870.815 18569679.250 -17455409.160 10 0 59667 72900.00000 0 -1061297.448 20430783.312 -15201760.665 10 0 59667 73800.00000 0 -1604605.044 22069074.778 -12652133.550 10 0 59667 74700.00000 0 -1926482.995 23428968.315 -9856188.160 10 0 59667 75600.00000 0 -2061757.466 24463046.304 -6868381.296 10 0 59667 76500.00000 0 -2053660.649 25133999.257 -3746896.509 10 0 59667 77400.00000 0 -1951743.393 25416158.695 -552501.412 10 0 59667 78300.00000 0 -1809521.319 25296558.036 2652644.691 10 0 59667 79200.00000 0 -1681955.681 24775477.166 5806208.618 10 0 59667 80100.00000 0 -1622877.115 23866448.414 8846901.768 10 0 59667 81000.00000 0 -1682462.551 22595724.559 11715674.744 10 0 59667 81900.00000 0 -1904872.893 21001232.224 14356864.469 10 0 59667 82800.00000 0 -2326151.848 19131055.653 16719271.251 10 0 59667 83700.00000 0 -2972474.818 17041515.360 18757145.241 10 0 59667 84600.00000 0 -3858821.672 14794922.694 20431063.827 10 0 59667 85500.00000 0 -4988129.051 12457104.522 21708683.876 99